1487617201.06,4292,12.88,72890.0,-5.45,-19.71,-16.83,0,*6B
1487617202.33,4293,12.94,72888.8,-5.45,-19.57,-16.75,0,*67
1487617203.59,4294,12.88,72876.3,-5.45,-19.57,-16.83,0,*69
1487617204.82,4295,12.88,72878.0,-5.43,-19.57,-16.93,0,*6F
1487617206.09,4296,12.94,72884.3,-5.45,-19.71,-17.07,0,*62
1487617207.38,4297,12.88,72880.5,-5.45,-19.85,-17.07,0,*68
1487617208.65,4298,12.94,72884.3,-5.45,-19.85,-17.17,0,*66
1487617209.9,4299,12.94,72892.0,-5.43,-19.81,-17.17,0,*65
1487617211.18,4300,12.94,72882.3,-5.45,-19.85,-17.07,0,*67
1487617212.44,4301,12.94,72890.8,-5.45,-19.95,-17.17,0,*66
1487617213.69,4302,12.94,72884.5,-5.45,-19.95,-17.17,0,*65
1487617214.95,4303,12.94,72886.8,-5.45,-19.95,-17.17,0,*64
1487617216.21,4304,12.88,72876.5,-5.45,-19.95,-17.17,0,*63
1487617217.46,4305,12.88,72864.0,-5.43,-20.15,-17.11,0,*60
1487617218.7,4306,12.94,72872.5,-5.43,-20.19,-17.17,0,*69
1487617219.95,4307,12.94,72880.0,-5.45,-20.09,-17.21,0,*6A
1487617221.2,4308,12.94,72880.0,-5.43,-20.19,-17.17,0,*67
1487617222.45,4309,12.88,72868.5,-5.45,-20.05,-17.17,0,*6D
1487617223.67,4310,12.94,72874.5,-5.43,-20.05,-17.11,0,*65
1487617224.92,4311,12.94,72880.8,-5.45,-20.05,-17.21,0,*61
1487617226.18,4312,12.88,72880.3,-5.45,-19.95,-17.03,0,*61
1487617227.41,4313,12.94,72886.8,-5.43,-19.91,-17.03,0,*62
1487617228.67,4314,12.94,72874.5,-5.45,-20.05,-17.07,0,*60
1487617229.87,4315,12.94,72878.0,-5.43,-19.99,-16.97,0,*60
1487617231.13,4316,12.88,72888.8,-5.45,-20.09,-17.03,0,*6A
1487617232.38,4317,12.94,72884.3,-5.45,-20.05,-17.03,0,*67
1487617233.62,4318,12.94,72878.0,-5.45,-20.09,-17.17,0,*61
1487617234.88,4319,12.94,72880.3,-5.45,-19.75,-16.69,0,*69
1487617236.14,4320,12.94,72886.8,-5.45,-19.71,-16.69,0,*67
1487617237.36,4321,12.94,72882.0,-5.43,-19.81,-16.83,0,*6B
1487617238.61,4322,12.88,72884.8,-5.45,-19.85,-16.89,0,*60
1487617239.82,4323,12.94,72888.5,-5.43,-19.51,-16.79,0,*61
1487617241.08,4324,12.88,72892.8,-5.43,-19.57,-17.03,0,*6C
1487617242.34,4325,12.88,72884.3,-5.45,-19.75,-17.03,0,*6B
1487617243.59,4326,12.88,72866.8,-5.45,-19.91,-17.03,0,*62
1487617244.82,4327,12.88,72860.3,-5.45,-19.91,-16.89,0,*60
1487617246.03,4328,12.88,72874.5,-5.43,-19.91,-16.83,0,*63
1487617247.25,4329,12.88,72874.0,-5.43,-19.91,-17.03,0,*6B
1487617248.48,4330,12.88,72868.8,-5.43,-20.05,-17.11,0,*67
1487617249.71,4331,12.94,72890.0,-5.43,-19.99,-17.11,0,*69
1487617250.97,4332,12.88,72888.8,-5.45,-19.91,-17.07,0,*63
1487617252.21,4333,12.94,72882.5,-5.43,-19.91,-17.07,0,*64
1487617253.44,4334,12.88,72876.8,-5.43,-19.91,-17.03,0,*67
1487617254.69,4335,12.88,72876.5,-5.45,-20.05,-17.03,0,*67
1487617255.92,4336,12.88,72892.5,-5.43,-19.99,-17.03,0,*6D
1487617257.15,4337,12.94,72884.0,-5.43,-19.85,-16.97,0,*6D
1487617258.38,4338,12.94,72898.8,-5.43,-19.99,-17.03,0,*63
1487617259.6,4339,12.88,72900.5,-5.43,-20.05,-17.17,0,*68
1487617260.83,4340,12.88,72906.3,-5.43,-19.91,-17.03,0,*64
1487617262.03,4341,12.94,72910.3,-5.43,-19.91,-16.97,0,*69
1487617263.28,4342,12.88,72906.5,-5.43,-20.19,-17.11,0,*6F
1487617264.5,4343,12.88,72900.5,-5.43,-20.29,-17.17,0,*6B
1487617265.71,4344,12.94,72902.3,-5.43,-20.29,-17.17,0,*6C
1487617266.93,4345,12.94,72898.3,-5.43,-20.29,-17.17,0,*6D
1487617268.18,4346,12.94,72902.3,-5.43,-20.35,-17.25,0,*62
1487617269.42,4347,12.88,72900.8,-5.45,-20.19,-17.31,0,*6E
1487617270.64,4348,12.88,72898.3,-5.43,-20.19,-17.31,0,*67
1487617271.86,4349,12.88,72900.0,-5.43,-20.29,-17.25,0,*60
1487617273.08,4350,12.94,72904.5,-5.43,-20.19,-17.31,0,*6E
1487617274.33,4351,12.94,72906.3,-5.43,-20.35,-17.41,0,*66
1487617275.56,4352,12.88,72904.0,-5.43,-20.43,-17.41,0,*64
1487617276.8,4353,12.88,72904.3,-5.43,-20.59,-17.41,0,*6E
1487617278.08,4354,12.94,72908.0,-5.41,-20.49,-17.41,0,*6A
1487617279.31,4355,12.88,72910.0,-5.43,-20.59,-17.45,0,*6C
1487617280.54,4356,12.88,72908.8,-5.43,-20.63,-17.55,0,*67
1487617281.77,4357,12.88,72914.0,-5.43,-20.63,-17.41,0,*63
1487617283.0,4358,12.94,72914.5,-5.43,-20.63,-17.55,0,*69
1487617284.23,4359,12.94,72910.8,-5.43,-20.63,-17.59,0,*64
1487617285.51,4360,12.88,72908.8,-5.45,-20.83,-17.63,0,*6F
1487617286.74,4361,12.94,72910.0,-5.43,-20.73,-17.59,0,*6E
1487617287.96,4362,12.94,72908.8,-5.43,-20.73,-17.55,0,*61
1487617289.19,4363,12.94,72902.5,-5.43,-20.73,-17.59,0,*6C
1487617290.42,4364,12.94,72902.5,-5.43,-20.73,-17.59,0,*6B
1487617291.69,4365,12.94,72904.5,-5.45,-20.79,-17.63,0,*6F
1487617292.95,4366,12.94,72910.8,-5.43,-20.79,-17.59,0,*63
1487617294.23,4367,12.88,72906.0,-5.45,-20.79,-17.59,0,*64
1487617295.51,4368,12.94,72910.3,-5.45,-20.79,-17.59,0,*6B
1487617296.71,4369,12.94,72906.0,-5.43,-20.89,-17.69,0,*60
1487617297.94,4370,12.88,72904.8,-5.43,-20.79,-17.69,0,*67
1487617299.2,4371,12.88,72904.0,-5.45,-20.93,-17.79,0,*65
1487617300.45,4372,12.94,72904.5,-5.45,-20.93,-17.79,0,*66
1487617301.65,4373,12.88,72904.3,-5.43,-20.93,-17.73,0,*6B
1487617302.88,4374,12.94,72906.0,-5.45,-20.93,-17.73,0,*6A
1487617304.08,4375,12.94,72904.8,-5.43,-20.93,-17.83,0,*62
1487617305.29,4376,12.94,72908.8,-5.43,-20.89,-17.69,0,*6E
1487617306.49,4377,12.88,72900.8,-5.43,-20.93,-17.73,0,*6F
1487617307.72,4378,12.88,72904.5,-5.45,-20.93,-17.73,0,*66
1487617308.92,4379,12.88,72906.3,-5.43,-20.89,-17.73,0,*6A
1487617310.2,4380,12.88,72900.0,-5.45,-20.99,-17.79,0,*61
1487617311.46,4381,12.88,72902.5,-5.45,-20.99,-17.69,0,*61
1487617312.72,4382,12.94,72906.3,-5.45,-20.93,-17.79,0,*69
1487617314.0,4383,12.88,72900.3,-5.45,-20.99,-17.79,0,*62
1487617315.2,4384,12.88,72896.0,-5.43,-20.93,-17.87,0,*68
1487617316.45,4385,12.94,72892.8,-5.45,-21.13,-17.93,0,*63
1487617317.71,4386,12.88,72890.5,-5.45,-21.13,-17.93,0,*60
1487617318.96,4387,12.88,72896.3,-5.45,-21.13,-17.93,0,*61
1487617320.19,4388,12.88,72896.5,-5.45,-21.13,-17.87,0,*6B
1487617321.43,4389,12.88,72892.5,-5.43,-20.99,-17.87,0,*6F
1487617322.69,4390,12.88,72898.5,-5.45,-21.03,-17.87,0,*63
1487617323.97,4391,12.88,72894.8,-5.45,-21.03,-17.93,0,*67
1487617325.22,4392,12.88,72886.8,-5.45,-20.93,-17.59,0,*6A
1487617326.43,4393,12.88,72882.8,-5.43,-21.09,-17.83,0,*68
1487617327.69,4394,12.88,72882.5,-5.45,-21.03,-17.83,0,*63
1487617328.92,4395,12.88,72886.3,-5.43,-20.99,-17.69,0,*62
1487617330.17,4396,12.88,72888.3,-5.45,-20.93,-17.79,0,*6C
1487617331.46,4397,12.88,72894.8,-5.45,-20.99,-17.79,0,*67
1487617332.72,4398,12.88,72896.8,-5.45,-20.99,-17.87,0,*69
1487617333.98,4399,12.88,72896.3,-5.45,-20.83,-17.87,0,*63
1487617335.24,4400,12.94,72906.3,-5.45,-20.79,-17.87,0,*61
1487617336.46,4401,12.88,72904.0,-5.45,-20.69,-17.73,0,*6A
1487617337.72,4402,12.88,72898.8,-5.45,-20.69,-17.79,0,*63
1487617338.95,4403,12.88,72892.0,-5.45,-20.43,-17.49,0,*69
1487617340.2,4404,12.88,72888.8,-5.43,-20.49,-17.45,0,*6E
1487617341.41,4405,12.88,72894.3,-5.43,-20.63,-17.69,0,*69
1487617342.69,4406,12.88,72892.8,-5.45,-20.99,-17.93,0,*6C
1487617343.97,4407,12.88,72886.8,-5.45,-21.03,-18.01,0,*6B
1487617345.2,4408,12.88,72886.5,-5.45,-21.13,-18.07,0,*63
1487617346.41,4409,12.88,72888.0,-5.43,-20.89,-17.87,0,*61
1487617347.67,4410,12.88,72890.5,-5.45,-20.99,-18.07,0,*69
1487617348.96,4411,12.88,72896.5,-5.45,-20.99,-18.01,0,*6E
1487617350.23,4412,12.88,72898.8,-5.45,-21.03,-17.93,0,*6B
1487617351.49,4413,12.88,72890.0,-5.43,-20.99,-17.97,0,*6A
1487617352.72,4414,12.88,72896.8,-5.45,-21.17,-18.21,0,*6E
1487617353.95,4415,12.88,72890.5,-5.43,-21.23,-18.07,0,*6A
1487617355.18,4416,12.88,72886.8,-5.41,-21.13,-18.17,0,*69
1487617356.44,4417,12.88,72888.0,-5.45,-21.27,-18.21,0,*6E
1487617357.66,4418,12.88,72888.0,-5.43,-21.27,-18.21,0,*67
1487617358.9,4419,12.88,72884.8,-5.45,-21.43,-18.11,0,*61
1487617360.13,4420,12.88,72892.0,-5.43,-21.23,-18.07,0,*6C
1487617361.36,4421,12.88,72890.3,-5.45,-21.17,-18.11,0,*6B
1487617362.59,4422,12.88,72876.0,-5.43,-21.09,-18.01,0,*60
1487617363.82,4423,12.88,72876.3,-5.43,-21.09,-17.97,0,*61
1487617365.05,4424,12.88,72882.0,-5.43,-20.73,-17.97,0,*6A
1487617366.3,4425,12.88,72898.5,-5.45,-20.63,-17.63,0,*67
1487617367.52,4426,12.94,72894.3,-5.45,-20.09,-17.31,0,*6F
1487617368.79,4427,12.88,72892.3,-5.45,-19.91,-17.07,0,*60
1487617370.01,4428,12.88,72892.3,-5.45,-19.75,-17.31,0,*60
1487617371.27,4429,12.88,72896.8,-5.45,-19.61,-17.31,0,*64
1487617372.55,4430,12.88,72898.8,-5.45,-19.41,-17.21,0,*6F
1487617373.81,4431,12.94,72902.3,-5.45,-19.47,-17.45,0,*6A
1487617375.03,4432,12.88,72892.8,-5.45,-20.05,-17.87,0,*6B
1487617376.29,4433,12.88,72894.0,-5.45,-20.25,-17.93,0,*6D
1487617377.57,4434,12.88,72902.3,-5.45,-20.53,-18.01,0,*6F
1487617378.82,4435,12.88,72898.5,-5.45,-20.83,-18.07,0,*65
1487617380.06,4436,12.94,72902.0,-5.45,-21.13,-18.11,0,*69
1487617381.31,4437,12.88,72900.5,-5.43,-20.99,-18.01,0,*6C
1487617382.6,4438,12.88,72900.0,-5.45,-21.03,-18.01,0,*67
1487617383.83,4439,12.88,72898.8,-5.45,-21.17,-18.07,0,*65
1487617385.06,4440,12.88,72906.3,-5.45,-21.43,-18.11,0,*6D
1487617386.32,4441,12.88,72896.0,-5.43,-21.27,-18.01,0,*69
1487617387.52,4442,12.88,72896.5,-5.43,-21.43,-18.21,0,*6A
1487617388.75,4443,12.88,72896.3,-5.43,-21.53,-18.17,0,*6F
1487617389.94,4444,12.94,72898.5,-5.43,-21.39,-18.17,0,*64
1487617391.2,4445,12.88,72892.8,-5.45,-21.57,-18.21,0,*6E
1487617392.45,4446,12.88,72892.8,-5.45,-21.57,-18.25,0,*69
1487617393.73,4447,12.88,72894.5,-5.45,-21.57,-18.35,0,*69
1487617394.99,4448,12.88,72890.8,-5.43,-21.57,-18.31,0,*64
1487617396.22,4449,12.88,72894.3,-5.43,-21.67,-18.21,0,*67
1487617397.42,4450,12.88,72888.8,-5.43,-21.77,-18.41,0,*68
1487617398.65,4451,12.88,72892.8,-5.43,-21.73,-18.35,0,*6E
1487617399.91,4452,12.88,72890.8,-5.43,-21.67,-18.35,0,*68
1487617401.17,4453,12.88,72886.8,-5.45,-21.77,-18.35,0,*6E
1487617402.4,4454,12.94,72888.8,-5.43,-21.73,-18.35,0,*6B
1487617403.65,4455,12.88,72894.5,-5.45,-21.87,-18.41,0,*64
1487617404.91,4456,12.88,72900.0,-5.45,-21.73,-18.35,0,*6F
1487617406.17,4457,12.88,72902.0,-5.45,-21.73,-18.35,0,*6E
1487617407.4,4458,12.88,72896.5,-5.45,-21.63,-18.11,0,*66
1487617408.66,4459,12.88,72886.5,-5.45,-21.63,-18.01,0,*66
1487617409.91,4460,12.88,72882.0,-5.45,-21.47,-18.01,0,*6A
1487617411.17,4461,12.94,72892.0,-5.45,-21.57,-18.07,0,*6C
1487617412.4,4462,12.88,72888.8,-5.43,-21.53,-18.17,0,*6C
1487617413.63,4463,12.88,72890.3,-5.45,-21.73,-18.25,0,*68
1487617414.85,4464,12.88,72890.5,-5.45,-21.63,-18.21,0,*6A
1487617416.09,4465,12.88,72876.3,-5.43,-21.67,-18.07,0,*6D
1487617417.34,4466,12.88,72874.5,-5.45,-21.63,-18.01,0,*6A
1487617418.57,4467,12.88,72882.0,-5.45,-21.17,-17.49,0,*6B
1487617419.82,4468,12.88,72884.5,-5.43,-20.49,-17.41,0,*60
1487617421.05,4469,12.88,72888.3,-5.43,-20.63,-17.55,0,*6C
1487617422.29,4470,12.88,72886.5,-5.43,-20.89,-17.97,0,*6E
1487617423.49,4471,12.88,72888.0,-5.43,-21.09,-17.83,0,*63
1487617424.72,4472,12.88,72896.8,-5.43,-20.79,-17.69,0,*62
1487617425.95,4473,12.88,72894.5,-5.43,-20.63,-17.45,0,*66
1487617427.21,4474,12.94,72896.3,-5.41,-20.63,-17.45,0,*63
1487617428.44,4475,12.88,72890.8,-5.41,-20.63,-17.87,0,*6C
1487617429.72,4476,12.88,72890.8,-5.41,-20.79,-18.01,0,*65
1487617430.94,4477,12.88,72888.8,-5.41,-21.09,-18.17,0,*65
1487617432.18,4478,12.88,72888.3,-5.43,-21.39,-18.31,0,*6F
1487617433.44,4479,12.88,72892.0,-5.43,-21.53,-18.31,0,*62
1487617434.69,4480,12.88,72892.3,-5.43,-21.57,-18.35,0,*64
1487617435.96,4481,12.88,72892.8,-5.43,-21.67,-18.31,0,*62
1487617437.19,4482,12.88,72902.0,-5.43,-21.67,-18.21,0,*60
1487617438.41,4483,12.88,72900.0,-5.45,-21.63,-18.21,0,*63
1487617439.64,4484,12.88,72898.0,-5.43,-21.57,-18.17,0,*60
1487617440.9,4485,12.88,72890.0,-5.43,-21.87,-18.31,0,*68
1487617442.16,4486,12.88,72890.3,-5.43,-22.17,-18.35,0,*65
1487617443.39,4487,12.88,72890.5,-5.43,-22.31,-18.45,0,*67
1487617444.62,4488,12.88,72898.0,-5.43,-22.47,-18.45,0,*69
1487617445.83,4489,12.88,72900.0,-5.43,-22.53,-18.49,0,*61
1487617447.05,4490,12.88,72902.3,-5.43,-22.53,-18.59,0,*68
1487617448.31,4491,12.88,72898.5,-5.45,-22.57,-18.55,0,*67
1487617449.54,4492,12.88,72892.8,-5.45,-22.57,-18.65,0,*67
1487617450.77,4493,12.88,72894.8,-5.45,-22.67,-18.65,0,*65
1487617451.97,4494,12.88,72892.0,-5.43,-22.67,-18.65,0,*64
1487617453.22,4495,12.88,72892.0,-5.45,-22.73,-18.65,0,*66
1487617454.5,4496,12.88,72890.8,-5.45,-22.73,-18.55,0,*66
1487617455.73,4497,12.88,72886.3,-5.45,-22.67,-18.49,0,*6F
1487617456.99,4498,12.88,72888.3,-5.45,-22.57,-18.35,0,*68
1487617458.25,4499,12.88,72896.0,-5.45,-22.57,-18.35,0,*69
1487617459.48,4500,12.88,72896.3,-5.45,-22.57,-18.25,0,*69
1487617460.74,4501,12.88,72896.5,-5.45,-22.57,-18.35,0,*69
1487617461.98,4502,12.88,72902.5,-5.43,-22.53,-18.35,0,*68
1487617463.21,4503,12.88,72904.5,-5.45,-22.57,-18.41,0,*68
1487617464.44,4504,12.88,72898.5,-5.45,-22.53,-18.25,0,*69
1487617465.66,4505,12.88,72898.8,-5.43,-22.31,-18.21,0,*6E
1487617466.88,4506,12.88,72896.8,-5.45,-22.41,-18.25,0,*68
1487617468.11,4507,12.88,72894.0,-5.45,-22.57,-18.25,0,*6E
1487617469.34,4508,12.88,72892.0,-5.43,-22.31,-18.21,0,*63
1487617470.6,4509,12.88,72894.0,-5.43,-22.47,-18.31,0,*62
1487617471.83,4510,12.88,72888.3,-5.45,-22.37,-18.25,0,*6E
1487617473.06,4511,12.88,72886.5,-5.45,-22.37,-18.21,0,*6B
1487617474.29,4512,12.88,72882.3,-5.43,-22.31,-18.07,0,*6C
1487617475.55,4513,12.88,72880.5,-5.45,-22.37,-18.01,0,*6B
1487617476.78,4514,12.88,72874.5,-5.45,-22.37,-18.11,0,*6D
1487617478.04,4515,12.88,72874.3,-5.45,-22.21,-18.11,0,*6B
1487617479.3,4516,12.88,72894.0,-5.45,-21.93,-18.01,0,*63
1487617480.58,4517,12.88,72896.5,-5.45,-21.57,-17.59,0,*68
1487617481.84,4518,12.88,72898.0,-5.45,-21.43,-17.45,0,*6F
1487617483.07,4519,12.88,72892.3,-5.45,-21.47,-17.49,0,*66
1487617484.35,4520,12.88,72884.5,-5.45,-21.57,-17.45,0,*61
1487617485.61,4521,12.88,72888.8,-5.45,-21.47,-17.45,0,*61
1487617486.83,4522,12.88,72898.5,-5.45,-21.43,-17.49,0,*6A
1487617488.06,4523,12.88,72898.5,-5.43,-21.43,-17.41,0,*65
1487617489.29,4524,12.88,72896.3,-5.45,-21.73,-17.49,0,*6F
1487617490.55,4525,12.88,72892.0,-5.45,-21.77,-17.45,0,*66
1487617491.78,4526,12.88,72890.0,-5.43,-21.93,-17.45,0,*69
1487617493.04,4527,12.88,72884.5,-5.43,-22.21,-17.59,0,*6F
1487617494.24,4528,12.88,72888.0,-5.43,-22.37,-17.83,0,*60
1487617495.46,4529,12.88,72888.8,-5.43,-22.53,-17.83,0,*63
1487617496.69,4530,12.88,72890.8,-5.43,-22.47,-17.69,0,*6A
1487617497.9,4531,12.88,72904.0,-5.43,-22.53,-17.73,0,*65
1487617499.16,4532,12.88,72900.8,-5.41,-22.67,-17.97,0,*69
1487617500.44,4533,12.88,72894.5,-5.41,-22.77,-18.01,0,*69
1487617501.67,4534,12.88,72894.5,-5.41,-22.83,-18.07,0,*63
1487617502.93,4535,12.88,72904.0,-5.41,-22.93,-18.01,0,*65
1487617504.17,4536,12.88,72902.5,-5.41,-22.93,-18.07,0,*60
1487617505.4,4537,12.88,72900.0,-5.41,-22.93,-18.07,0,*61
1487617506.63,4538,12.88,72896.3,-5.41,-22.97,-18.17,0,*6B
1487617507.87,4539,12.88,72898.3,-5.41,-22.97,-18.07,0,*6B
1487617509.12,4540,12.88,72900.8,-5.41,-23.03,-18.17,0,*68
1487617510.32,4541,12.88,72902.0,-5.43,-23.13,-18.17,0,*6A
1487617511.58,4542,12.88,72902.8,-5.41,-23.03,-18.07,0,*6B
1487617512.82,4543,12.88,72900.3,-5.41,-23.13,-18.07,0,*6B
1487617514.04,4544,12.88,72894.0,-5.41,-23.13,-18.17,0,*6D
1487617515.27,4545,12.88,72894.3,-5.43,-23.29,-18.17,0,*67
1487617516.5,4546,12.88,72888.3,-5.43,-23.19,-18.07,0,*66
1487617517.76,4547,12.88,72890.8,-5.43,-23.03,-17.97,0,*6A
1487617519.02,4548,12.88,72894.5,-5.41,-22.97,-17.97,0,*6B
1487617520.28,4549,12.88,72894.8,-5.41,-22.93,-18.01,0,*6E
1487617521.51,4550,12.88,72896.8,-5.41,-22.37,-17.69,0,*69
1487617522.75,4551,12.88,72900.8,-5.41,-22.83,-17.83,0,*63
1487617524.0,4552,12.88,72900.0,-5.41,-22.83,-17.97,0,*65
1487617525.24,4553,12.88,72898.0,-5.43,-22.97,-17.97,0,*63
1487617526.5,4554,12.88,72902.8,-5.43,-23.03,-17.97,0,*68
1487617527.78,4555,12.88,72902.3,-5.41,-23.19,-17.97,0,*60
1487617529.07,4556,12.88,72904.0,-5.41,-23.19,-17.97,0,*63
1487617530.35,4557,12.88,72908.0,-5.41,-23.29,-17.97,0,*61
1487617531.61,4558,12.88,72906.3,-5.41,-23.43,-18.01,0,*62
1487617532.82,4559,12.88,72910.0,-5.43,-23.43,-18.07,0,*67
1487617534.06,4560,12.88,72904.8,-5.43,-23.19,-17.83,0,*61
1487617535.31,4561,12.88,72902.0,-5.43,-23.19,-17.79,0,*65
1487617536.57,4562,12.88,72902.5,-5.43,-23.03,-17.59,0,*6F
1487617537.83,4563,12.88,72902.0,-5.43,-23.03,-17.59,0,*6E
1487617539.08,4564,12.88,72900.8,-5.43,-23.03,-17.59,0,*69
1487617540.34,4565,12.88,72904.0,-5.45,-22.87,-17.59,0,*63
1487617541.62,4566,12.88,72910.5,-5.41,-22.77,-17.55,0,*67
1487617542.91,4567,12.88,72906.0,-5.41,-22.77,-17.55,0,*66
1487617544.13,4568,12.88,72900.8,-5.43,-22.83,-17.55,0,*60
1487617545.34,4569,12.88,72902.8,-5.43,-22.97,-17.73,0,*60
1487617546.54,4570,12.88,72896.8,-5.43,-23.13,-17.69,0,*6E
1487617547.77,4571,12.88,72898.5,-5.43,-23.19,-17.69,0,*65
1487617549.0,4572,12.88,72892.8,-5.43,-23.19,-17.69,0,*66
1487617550.23,4573,12.88,72886.5,-5.43,-23.29,-17.73,0,*6F
1487617551.46,4574,12.88,72890.0,-5.43,-23.33,-17.83,0,*6C
1487617552.72,4575,12.88,72894.3,-5.41,-23.33,-17.87,0,*6B
1487617553.98,4576,12.88,72900.5,-5.43,-23.33,-17.59,0,*69
1487617555.23,4577,12.88,72896.0,-5.43,-23.19,-17.59,0,*60
1487617556.51,4578,12.88,72900.8,-5.45,-23.23,-17.55,0,*6C
1487617557.77,4579,12.88,72900.5,-5.43,-23.33,-17.59,0,*66
1487617559.02,4580,12.88,72900.0,-5.41,-23.33,-17.69,0,*61
1487617560.3,4581,12.88,72904.3,-5.41,-23.33,-17.55,0,*6F
1487617561.59,4582,12.88,72898.8,-5.41,-23.33,-17.59,0,*60
1487617562.87,4583,12.88,72902.5,-5.41,-23.33,-17.55,0,*6D
1487617564.15,4584,12.88,72900.5,-5.41,-23.33,-17.59,0,*66
1487617565.4,4585,12.88,72904.5,-5.41,-23.49,-17.73,0,*62
1487617566.64,4586,12.88,72900.5,-5.41,-23.43,-17.69,0,*60
1487617567.87,4587,12.88,72896.3,-5.41,-23.43,-17.69,0,*61
1487617569.11,4588,12.88,72898.5,-5.43,-23.43,-17.55,0,*63
1487617570.36,4589,12.88,72898.8,-5.41,-23.59,-17.55,0,*6B
1487617571.64,4590,12.88,72896.8,-5.41,-23.49,-17.59,0,*6E
1487617572.93,4591,12.88,72898.5,-5.41,-23.49,-17.59,0,*6F
1487617574.16,4592,12.88,72902.0,-5.43,-23.59,-17.55,0,*63
1487617575.44,4593,12.88,72892.8,-5.41,-23.65,-17.55,0,*6F
1487617576.67,4594,12.88,72890.3,-5.43,-23.59,-17.45,0,*64
1487617577.9,4595,12.88,72888.5,-5.43,-23.59,-17.55,0,*64
1487617579.15,4596,12.88,72902.8,-5.43,-23.49,-17.41,0,*63
1487617580.38,4597,12.88,72904.8,-5.43,-23.49,-17.31,0,*65
1487617581.59,4598,12.88,72910.3,-5.43,-23.43,-17.31,0,*60
1487617582.82,4599,12.88,72910.5,-5.43,-23.43,-17.17,0,*65
1487617584.05,4600,12.88,72904.5,-5.43,-23.43,-17.17,0,*66
1487617585.31,4601,12.88,72904.3,-5.41,-23.43,-17.17,0,*65
1487617586.59,4602,12.88,72902.5,-5.41,-23.33,-17.11,0,*67
1487617587.87,4603,12.88,72896.3,-5.41,-23.29,-17.11,0,*6D
1487617589.13,4604,12.88,72888.3,-5.41,-23.43,-17.17,0,*60
1487617590.41,4605,12.88,72888.5,-5.41,-23.33,-17.17,0,*66
1487617591.69,4606,12.88,72886.8,-5.41,-23.33,-17.07,0,*64
1487617592.95,4607,12.88,72888.8,-5.41,-23.43,-17.17,0,*63
1487617594.23,4608,12.88,72898.5,-5.41,-23.33,-17.11,0,*6D
1487617595.52,4609,12.88,72904.3,-5.41,-23.33,-17.11,0,*6C
1487617596.75,4610,12.88,72910.0,-5.41,-23.13,-16.97,0,*69
1487617597.97,4611,12.88,72900.0,-5.39,-23.03,-16.83,0,*63
1487617599.26,4612,12.88,72896.5,-5.41,-23.29,-17.03,0,*6E
1487617600.54,4613,12.88,72900.8,-5.41,-23.29,-17.03,0,*6F
1487617601.8,4614,12.88,72912.3,-5.41,-23.43,-17.03,0,*64
1487617603.08,4615,12.88,72906.8,-5.41,-23.33,-17.03,0,*62
1487617604.36,4616,12.88,72908.0,-5.41,-23.29,-17.03,0,*6A
1487617605.65,4617,12.88,72902.5,-5.41,-23.33,-17.03,0,*60
1487617606.9,4618,12.88,72896.3,-5.41,-23.33,-16.97,0,*63
1487617608.12,4619,12.88,72892.0,-5.39,-23.29,-16.93,0,*62
1487617609.38,4620,12.88,72888.3,-5.41,-23.43,-17.03,0,*63
1487617610.62,4621,12.88,72884.3,-5.39,-23.43,-17.03,0,*6D
1487617611.81,4622,12.88,72890.5,-5.39,-23.39,-16.93,0,*6B
1487617613.03,4623,12.88,72886.0,-5.39,-23.29,-16.97,0,*6F
1487617614.29,4624,12.88,72902.5,-5.41,-23.19,-16.83,0,*61
1487617615.55,4625,12.88,72898.8,-5.41,-23.19,-16.83,0,*60
1487617616.78,4626,12.88,72900.8,-5.39,-23.29,-16.75,0,*66
1487617618.04,4627,12.88,72900.0,-5.41,-23.29,-16.79,0,*64
1487617619.27,4628,12.88,72902.5,-5.39,-23.23,-16.75,0,*62
1487617620.52,4629,12.88,72906.5,-5.41,-23.33,-16.79,0,*61
1487617621.75,4630,12.88,72906.8,-5.39,-23.13,-16.65,0,*69
1487617622.97,4631,12.88,72906.0,-5.39,-22.97,-16.51,0,*62
1487617624.17,4632,12.88,72900.5,-5.35,-22.87,-16.55,0,*68
1487617625.38,4633,12.88,72896.3,-5.35,-22.93,-16.55,0,*6C
1487617626.61,4634,12.88,72898.3,-5.35,-23.03,-16.59,0,*6F
1487617627.82,4635,12.88,72902.3,-5.35,-23.09,-16.59,0,*64
1487617629.05,4636,12.88,72902.8,-5.35,-23.09,-16.69,0,*64
1487617630.28,4637,12.88,72902.0,-5.35,-23.03,-16.59,0,*6C
1487617631.51,4638,12.88,72906.3,-5.39,-22.97,-16.65,0,*6C
1487617632.7,4639,12.88,72904.3,-5.35,-22.83,-16.45,0,*66
1487617633.92,4640,12.88,72904.8,-5.35,-23.03,-16.45,0,*61
1487617635.17,4641,12.88,72904.0,-5.35,-22.73,-16.31,0,*65
1487617636.37,4642,12.88,72900.3,-5.35,-22.67,-16.41,0,*64
1487617637.58,4643,12.88,72902.8,-5.39,-22.73,-16.45,0,*68
1487617638.81,4644,12.88,72896.3,-5.35,-22.73,-16.41,0,*67
1487617640.02,4645,12.88,72892.8,-5.35,-22.73,-16.45,0,*62
1487617641.22,4646,12.88,72892.3,-5.35,-22.67,-16.41,0,*60
1487617642.45,4647,12.88,72906.3,-5.35,-22.83,-16.31,0,*6C
1487617643.69,4648,12.88,72910.0,-5.35,-22.73,-16.31,0,*6C
1487617644.91,4649,12.88,72902.5,-5.35,-22.67,-16.31,0,*68
1487617646.14,4650,12.88,72904.3,-5.35,-22.53,-16.31,0,*67
1487617647.37,4651,12.88,72902.5,-5.35,-22.53,-16.27,0,*61
1487617648.6,4652,12.88,72900.3,-5.35,-22.41,-16.17,0,*62
1487617649.82,4653,12.88,72896.8,-5.35,-22.41,-16.27,0,*60
1487617651.05,4654,12.88,72898.5,-5.35,-22.41,-16.17,0,*64
1487617652.28,4655,12.88,72898.8,-5.35,-22.53,-16.17,0,*66
1487617653.5,4656,12.88,72896.3,-5.39,-22.63,-16.31,0,*6E
1487617654.72,4657,12.88,72896.5,-5.39,-22.63,-16.31,0,*6F
1487617655.95,4658,12.88,72896.8,-5.39,-22.57,-16.23,0,*64
1487617657.18,4659,12.88,72896.8,-5.35,-22.57,-16.13,0,*6A
1487617658.39,4660,12.88,72894.5,-5.35,-22.57,-16.03,0,*61
1487617659.62,4661,12.88,72894.5,-5.35,-22.57,-16.13,0,*61
1487617660.85,4662,12.88,72898.0,-5.35,-22.53,-16.13,0,*66
1487617662.08,4663,12.88,72898.5,-5.35,-22.53,-16.17,0,*63
1487617663.34,4664,12.88,72892.5,-5.33,-22.53,-16.27,0,*61
1487617664.57,4665,12.88,72896.0,-5.35,-22.57,-16.27,0,*62
1487617665.8,4666,12.88,72894.0,-5.35,-22.57,-16.17,0,*62
1487617667.0,4667,12.88,72892.3,-5.35,-22.53,-16.03,0,*62
1487617668.23,4668,12.88,72898.3,-5.35,-22.67,-16.13,0,*6B
1487617669.46,4669,12.88,72890.5,-5.35,-22.67,-16.13,0,*6A
1487617670.71,4670,12.88,72890.8,-5.39,-22.77,-16.17,0,*6B
1487617671.97,4671,12.88,72896.8,-5.39,-22.77,-16.23,0,*6D
1487617673.22,4672,12.88,72902.8,-5.41,-22.83,-16.27,0,*6E
1487617674.44,4673,12.88,72896.3,-5.39,-22.73,-15.99,0,*69
1487617675.67,4674,12.88,72892.8,-5.39,-22.63,-15.89,0,*6E
1487617676.86,4675,12.88,72894.3,-5.39,-22.63,-15.99,0,*6E
1487617678.09,4676,12.88,72894.3,-5.39,-22.63,-16.09,0,*67
1487617679.38,4677,12.88,72880.5,-5.41,-22.77,-16.13,0,*67
1487617680.63,4678,12.88,72888.3,-5.39,-22.73,-16.09,0,*68
1487617681.87,4679,12.88,72892.3,-5.39,-22.57,-16.09,0,*6F
1487617683.06,4680,12.88,72906.3,-5.39,-22.63,-15.99,0,*64
1487617684.29,4681,12.88,72914.3,-5.35,-22.53,-15.85,0,*67
1487617685.5,4682,12.88,72904.8,-5.35,-22.53,-15.71,0,*6F
1487617686.74,4683,12.88,72900.0,-5.35,-22.53,-15.81,0,*61
1487617687.94,4684,12.88,72898.3,-5.35,-22.53,-15.67,0,*6E
1487617689.14,4685,12.88,72888.0,-5.35,-22.37,-15.53,0,*6A
1487617690.34,4686,12.88,72884.3,-5.35,-22.41,-15.67,0,*6F
1487617691.55,4687,12.88,72870.0,-5.35,-22.53,-15.71,0,*6A
1487617692.75,4688,12.88,72872.5,-5.35,-22.53,-15.67,0,*62
1487617693.98,4689,12.88,72884.5,-5.35,-22.27,-15.43,0,*66
1487617695.21,4690,12.88,72882.0,-5.35,-22.27,-15.43,0,*6E
1487617696.44,4691,12.88,72888.3,-5.35,-22.37,-15.57,0,*6B
1487617697.67,4692,12.88,72894.8,-5.35,-22.21,-15.53,0,*6B
1487617698.87,4693,12.88,72900.5,-5.35,-22.27,-15.53,0,*6C
1487617700.1,4694,12.88,72900.0,-5.33,-22.27,-15.53,0,*6D
1487617701.33,4695,12.88,72894.8,-5.33,-22.11,-15.53,0,*69
1487617702.56,4696,12.88,72892.3,-5.35,-22.11,-15.57,0,*68
1487617703.76,4697,12.88,72890.3,-5.35,-22.11,-15.53,0,*6D
1487617705.04,4698,12.88,72900.5,-5.33,-21.97,-15.57,0,*6D